Location: Devargunta
(16.7631°N, 80.9077°E)
Time: 16:10:23
(UTC+00:00)

H-2A R/B - Pass Details

Date: 19 January 2021
Orbit: 734 x 836 km, 98.2° (Epoch: 26 February)

Event Time Altitude Azimuth Distance (km) Brightness Sun altitude
Rises 13:31:06 0° 161° (SSE) 3,148 5.2 -15.7°
Reaches altitude 10° 13:33:22 10° 158° (SSE) 2,228 4.4 -16.2°
Maximum altitude 13:38:13 65° 77° (ENE) 807 1.8 -17.3°
Drops below altitude 10° 13:43:06 10° 356° (N) 2,259 4.3 -18.5°
Sets 13:45:26 0° 353° (N) 3,195 5.1 -19.0°
